sat.trackr.live / text

‹ back to catalog

ALSAT-1B

NORAD 41785 · 2016-059C

PAYLOAD ACTIVE UNKNOWN

§ Identity

Operator
Country
ALG
Launch date
2016-09-26
Launch site
SRILR
Launch vehicle
Mass (kg)
RCS (m²)
0.38

Purposes: earth_obs

External: N2YO · Heavens-Above · Gunter

§ Orbital elements

Epoch: 2026-09-13T04:23:28.046400Z

Period
97.80 min
Inclination
97.7782°
Eccentricity
0.0008233
Mean motion
14.72330830 rev/d
Perigee alt
647.8 km
Apogee alt
659.4 km
Semi-major
7,031.8 km
B*
4.3961e-5
RAAN
261.1658°
Arg perigee
310.9433°
Mean anomaly
49.1061°
Rev number
53,352

§ Raw data

ALSAT-1B1 41785U 16059C   26256.18296350  .00000231  00000+0  43961-4 0  99932 41785  97.7782 261.1658 0008233 310.9433  49.1061 14.72330830533525

JSON: /api/v1/satellites/41785 · /tle

For live sub-satellite position, see the globe view (requires WebGL).

§ Visibility from observer

Set your observer location to see the next 7 days of passes ≥ 10°. The values pass through the URL so the page stays shareable.

No JS? Fill the form by hand. The geolocation button needs JavaScript.

§ Radio — SatNOGS DB

ModeDescriptionDownlinkUplink
FM S-band telemetry 2.233 GHz

1 transmitter · refreshed weekly from db.satnogs.org